GW5785 Weather Reports


time (UTC)temp
F
wind
direction
speed
knots
gust
knots
rain 1hr
in
rain 24hr
in
rain mn
in
humidity
%
barometer
mb
20260506201127 37 337 1.7 2.6 0.00 0.03 0.03 76 1009.7
20260506200623 37 342 1.7 1.7 0.00 0.03 0.03 75 1009.6
20260506200120 38 348 0.9 2.6 0.00 0.03 0.03 74 1009.5
20260506195617 38 56 0.0 0.0 0.00 0.03 0.03 73 1009.5
20260506195113 39 111 0.0 2.6 0.00 0.03 0.03 72 1009.5
20260506194610 39 129 2.6 3.5 0.00 0.03 0.03 74 1009.4
20260506194107 39 118 3.5 5.2 0.00 0.03 0.03 73 1009.3
20260506193605 39 98 1.7 2.6 0.00 0.03 0.03 74 1009.4
20260506193102 39 98 1.7 2.6 0.00 0.03 0.03 75 1009.5
20260506192558 39 133 1.7 5.2 0.00 0.03 0.03 74 1009.4
20260506192054 40 130 4.3 6.1 0.00 0.03 0.03 74 1009.2
20260506191551 40 120 3.5 6.1 0.00 0.03 0.03 74 1009.4
20260506191047 40 79 3.5 7.0 0.00 0.03 0.03 74 1009.3
20260506190544 40 145 5.2 6.1 0.00 0.03 0.03 73 1009.1
20260506190041 40 121 3.5 6.1 0.00 0.03 0.03 73 1009.2
20260506185539 40 126 3.5 7.0 0.00 0.03 0.03 73 1009.3
20260506185035 40 268 2.6 3.5 0.00 0.03 0.03 72 1009.1
20260506184533 40 146 1.7 3.5 0.00 0.03 0.03 71 1009.1
20260506184030 40 170 0.9 1.7 0.00 0.03 0.03 72 1009.0
20260506183525 41 94 0.9 2.6 0.00 0.03 0.03 72 1009.0
20260506183022 41 256 1.7 5.2 0.00 0.03 0.03 72 1009.0
20260506182520 41 160 1.7 3.5 0.00 0.03 0.03 72 1009.1
20260506182017 41 166 4.3 5.2 0.00 0.03 0.03 71 1009.0
20260506181515 42 137 0.9 3.5 0.00 0.03 0.03 67 1009.1
20260506181011 42 195 3.5 7.0 0.00 0.03 0.03 67 1009.0
20260506180508 42 159 1.7 6.1 0.00 0.03 0.03 67 1009.1
20260506180005 42 235 0.9 5.2 0.00 0.03 0.03 69 1008.9
20260506175500 42 263 2.6 5.2 0.00 0.03 0.03 68 1009.0
20260506174957 42 272 5.2 7.0 0.00 0.03 0.03 65 1009.0
20260506174456 42 237 1.7 5.2 0.00 0.03 0.03 67 1008.9
20260506173952 42 262 2.6 7.0 0.00 0.03 0.03 67 1008.9
20260506173449 42 150 3.5 7.0 0.00 0.03 0.03 67 1008.9
20260506172946 42 112 2.6 7.0 0.00 0.03 0.03 68 1008.9
20260506172444 42 357 2.6 6.1 0.00 0.03 0.03 68 1008.8
20260506171940 42 54 1.7 6.1 0.00 0.03 0.03 69 1008.8
20260506171437 42 243 1.7 7.0 0.00 0.03 0.03 68 1008.8
20260506170935 43 215 3.5 7.0 0.00 0.03 0.03 69 1008.8
20260506170431 44 314 3.5 7.0 0.00 0.03 0.03 66 1008.8
20260506165930 44 228 4.3 7.8 0.00 0.03 0.03 64 1008.7
20260506165428 44 116 0.9 5.2 0.00 0.03 0.03 63 1008.5
20260506164924 43 107 1.7 7.0 0.00 0.03 0.03 63 1008.5
20260506164421 43 100 3.5 7.0 0.00 0.03 0.03 63 1008.5
20260506163919 44 188 3.5 7.0 0.00 0.03 0.03 62 1008.5
20260506163414 43 200 2.6 7.0 0.00 0.03 0.03 63 1008.5
20260506162909 43 141 2.6 7.0 0.00 0.03 0.03 63 1008.6
20260506162407 43 108 3.5 6.1 0.00 0.03 0.03 63 1008.7
20260506161904 44 233 0.9 5.2 0.00 0.03 0.03 63 1008.6
20260506161402 44 215 2.6 5.2 0.00 0.03 0.03 61 1008.5
20260506160859 45 285 3.5 7.0 0.00 0.03 0.03 58 1008.6
20260506160355 46 214 3.5 7.8 0.00 0.03 0.03 60 1008.5
20260506155854 46 270 1.7 3.5 0.00 0.03 0.03 59 1008.3
20260506155351 46 198 1.7 3.5 0.00 0.03 0.03 58 1008.5
20260506153508 46 300 1.7 2.6 0.00 0.03 0.03 59 1008.3
20260506153005 44 255 2.6 2.6 0.00 0.03 0.03 61 1008.3
20260506152502 44 253 0.9 2.6 0.00 0.03 0.03 59 1008.4
20260506152000 45 288 1.7 6.1 0.00 0.03 0.03 59 1008.1
20260506151457 46 325 1.7 3.5 0.00 0.03 0.03 55 1008.1
20260506150954 46 280 0.9 3.5 0.00 0.03 0.03 58 1008.3
20260506150450 46 297 1.7 3.5 0.00 0.03 0.03 58 1008.3
20260506145948 46 323 1.7 3.5 0.00 0.03 0.03 56 1008.2
20260506145444 46 257 1.7 3.5 0.00 0.03 0.03 54 1007.9
20260506144942 45 286 3.5 5.2 0.00 0.03 0.03 57 1008.2
20260506144438 45 295 3.5 5.2 0.00 0.03 0.03 54 1008.1
20260506143936 44 308 1.7 2.6 0.00 0.03 0.03 58 1008.2
20260506143433 44 298 1.7 3.5 0.00 0.03 0.03 60 1008.2
20260506142931 46 277 1.7 2.6 0.00 0.03 0.03 56 1008.1
20260506142429 46 257 1.7 2.6 0.00 0.03 0.03 57 1008.2
20260506141927 48 248 0.9 2.6 0.00 0.03 0.03 54 1008.1
20260506141424 46 332 0.9 1.7 0.00 0.03 0.03 56 1008.2
20260506140923 45 293 0.9 3.5 0.00 0.03 0.03 58 1008.2
20260506140419 45 274 1.7 5.2 0.00 0.03 0.03 59 1008.1
20260506135916 45 229 1.7 3.5 0.00 0.03 0.03 58 1007.9
20260506135413 44 311 3.5 3.5 0.00 0.03 0.03 59 1007.9
20260506134909 48 286 2.6 5.2 0.00 0.03 0.03 53 1008.0
20260506134406 47 335 5.2 7.0 0.00 0.03 0.03 56 1007.8
20260506133903 47 306 0.9 2.6 0.00 0.03 0.03 57 1007.8
20260506133359 45 260 1.7 3.5 0.00 0.03 0.03 60 1007.9
20260506132856 44 10 0.9 3.5 0.00 0.03 0.03 56 1007.9
20260506132353 43 330 5.2 7.0 0.00 0.03 0.03 58 1007.9
20260506131851 43 64 1.7 3.5 0.00 0.03 0.03 60 1008.0
20260506131347 43 314 1.7 6.1 0.00 0.03 0.03 64 1007.8
20260506130845 42 342 1.7 5.2 0.00 0.03 0.03 66 1008.0
20260506130341 42 341 1.7 2.6 0.00 0.03 0.03 66 1008.1
20260506125839 42 268 6.1 7.8 0.00 0.03 0.03 63 1008.0
20260506125337 42 296 3.5 7.8 0.00 0.03 0.03 66 1007.9
20260506124835 42 294 1.7 3.5 0.00 0.03 0.03 60 1007.7
20260506124332 42 300 0.9 2.6 0.00 0.03 0.03 60 1007.9
20260506123829 42 333 0.0 1.7 0.00 0.03 0.03 57 1007.9
20260506123328 42 310 1.7 5.2 0.00 0.03 0.03 61 1007.8
20260506122824 42 292 4.3 6.1 0.00 0.03 0.03 60 1007.7
20260506122321 42 299 2.6 5.2 0.00 0.03 0.03 61 1007.8
20260506121820 42 301 1.7 2.6 0.00 0.03 0.03 63 1007.6
20260506121316 42 270 1.7 1.7 0.00 0.03 0.03 62 1007.5
20260506120813 42 302 1.7 2.6 0.00 0.03 0.03 61 1007.6
20260506120311 42 282 1.7 3.5 0.00 0.03 0.03 63 1007.5
20260506115808 42 272 0.9 3.5 0.00 0.03 0.03 65 1007.3
20260506115307 42 300 1.7 1.7 0.00 0.03 0.03 64 1007.4
20260506114804 43 295 0.9 1.7 0.00 0.03 0.03 65 1007.5
20260506114302 43 314 1.7 3.5 0.00 0.03 0.03 63 1007.4
20260506113800 44 278 2.6 6.1 0.00 0.03 0.03 62 1007.3
20260506113257 45 272 1.7 2.6 0.00 0.03 0.03 61 1007.3
20260506112754 46 198 2.6 3.5 0.00 0.03 0.03 58 1007.2
20260506112251 45 300 2.6 3.5 0.00 0.03 0.03 62 1007.2
20260506111748 45 273 2.6 5.2 0.00 0.03 0.03 62 1007.1
20260506111246 44 211 1.7 5.2 0.00 0.03 0.03 63 1007.2
20260506110743 46 225 1.7 2.6 0.00 0.03 0.03 64 1007.3
20260506110241 45 256 1.7 3.5 0.00 0.03 0.03 61 1007.1
20260506105737 45 243 0.9 2.6 0.00 0.03 0.03 67 1007.0
20260506105234 44 265 3.5 6.1 0.00 0.03 0.03 63 1007.2
20260506104732 42 284 1.7 3.5 0.00 0.03 0.03 68 1006.8
20260506104229 42 312 1.7 5.2 0.00 0.03 0.03 69 1007.0
20260506103726 41 285 6.1 7.8 0.00 0.03 0.03 73 1007.0
20260506103223 40 293 4.3 6.1 0.00 0.03 0.03 75 1007.1
20260506102721 40 250 1.7 6.1 0.00 0.03 0.03 74 1006.9
20260506102220 41 279 5.2 6.1 0.00 0.03 0.03 72 1006.8
20260506101715 41 277 4.3 7.0 0.00 0.03 0.03 74 1006.7
20260506101212 41 273 3.5 6.1 0.00 0.03 0.03 74 1006.8
20260506100711 41 283 3.5 7.0 0.00 0.03 0.03 74 1007.0
20260506100208 42 264 2.6 3.5 0.00 0.03 0.03 73 1006.7
20260506095706 43 248 2.6 5.2 0.00 0.03 0.03 71 1006.8
20260506095203 41 247 3.5 5.2 0.00 0.03 0.03 74 1006.7
20260506094700 41 259 3.5 3.5 0.00 0.03 0.03 76 1006.7
20260506094158 40 271 3.5 7.0 0.00 0.03 0.03 75 1006.7
20260506093657 41 274 3.5 7.0 0.00 0.03 0.03 76 1006.7
20260506093153 40 303 4.3 7.0 0.00 0.03 0.03 77 1006.6
20260506092651 40 273 3.5 7.0 0.00 0.03 0.03 78 1006.6
20260506092148 39 266 3.5 5.2 0.00 0.03 0.03 78 1006.5
20260506091646 39 223 3.5 9.6 0.00 0.03 0.03 78 1006.2
20260506091143 40 257 3.5 7.8 0.00 0.03 0.03 78 1006.3
20260506090641 41 235 4.3 7.0 0.00 0.03 0.03 76 1006.2
20260506090137 43 288 4.3 6.1 0.00 0.03 0.03 75 1006.0
20260506085634 43 248 2.6 6.1 0.00 0.03 0.03 66 1006.1
20260506085130 42 138 0.9 1.7 0.00 0.03 0.03 61 1006.1
20260506084627 43 213 0.0 2.6 0.00 0.03 0.03 64 1006.0
20260506084124 42 235 0.9 3.5 0.00 0.03 0.03 64 1006.0
20260506083621 42 290 0.9 1.7 0.00 0.03 0.03 67 1006.0
20260506083118 43 226 1.7 2.6 0.00 0.03 0.03 65 1005.8
20260506082615 42 246 1.7 1.7 0.00 0.03 0.03 68 1005.9
20260506082111 42 244 0.0 1.7 0.00 0.03 0.03 68 1006.0
20260506081609 42 246 1.7 1.7 0.00 0.03 0.03 69 1005.7
20260506081106 43 247 1.7 3.5 0.00 0.03 0.03 68 1006.0
20260506080604 44 234 0.0 0.0 0.00 0.03 0.03 66 1005.6
20260506073044 42 167 0.0 0.9 0.00 0.03 0.03 69 1005.5
20260506072541 42 223 0.9 0.9 0.00 0.03 0.03 72 1005.3
20260506072039 41 214 1.7 2.6 0.00 0.03 0.03 73 1005.3
20260506071536 40 223 0.9 1.7 0.00 0.03 0.03 76 1005.4
20260506071034 40 252 0.0 0.0 0.00 0.03 0.03 76 1005.4
20260506070531 39 204 0.0 0.0 0.00 0.03 0.03 76 1005.5
20260506062508 39 282 0.0 0.0 0.00 0.03 0.03 81 1004.9
20260506062005 39 252 0.0 0.0 0.00 0.03 0.03 81 1005.1
20260506061500 39 199 0.0 0.0 0.00 0.03 0.03 81 1005.1
20260506060958 38 199 0.0 0.0 0.00 0.03 0.03 83 1005.1
20260506060457 38 211 0.0 0.0 0.00 0.03 0.03 84 1004.8
20260506050925 40 122 0.0 0.0 0.00 0.03 0.03 80 1004.6
20260506050423 39 82 0.0 0.0 0.00 0.03 0.03 80 1004.4
20260506044913 37 52 0.0 0.0 0.00 0.03 0.03 92 1004.6
20260506044412 36 52 0.0 0.0 0.00 0.03 0.03 93 1004.6
20260506043908 35 52 0.0 0.0 0.00 0.03 0.03 94 1004.5
20260506043406 35 52 0.0 0.0 0.00 0.03 0.03 94 1004.4
20260506042904 35 52 0.0 0.0 0.00 0.03 0.03 94 1004.5
20260506042403 35 52 0.0 0.0 0.00 0.03 0.03 94 1004.4
20260506041900 36 52 0.0 0.0 0.00 0.03 0.03 95 1004.4
20260506041357 35 52 0.0 0.0 0.00 0.03 0.03 95 1004.3
20260506040855 35 52 0.0 0.9 0.00 0.03 0.03 95 1004.2
20260506040352 34 345 0.0 0.0 0.00 0.03 0.03 95 1004.0
20260506035848 34 0 0.0 0.9 0.00 0.03 0.03 95 1004.1
20260506035345 33 53 1.7 1.7 0.00 0.03 0.03 95 1004.1
20260506034843 33 24 1.7 1.7 0.00 0.03 0.03 95 1004.3
20260506034340 34 32 0.0 0.0 0.00 0.03 0.03 95 1004.0
20260506033836 34 311 0.0 0.0 0.00 0.03 0.03 95 1004.0
20260506033334 33 327 0.0 0.0 0.00 0.03 0.03 95 1003.9
20260506032830 34 345 0.0 0.0 0.00 0.03 0.03 95 1003.9
20260506032327 34 30 0.0 0.0 0.00 0.03 0.03 95 1003.9
20260506031824 34 11 0.0 0.0 0.00 0.03 0.03 95 1003.8
20260506031322 34 321 0.0 0.0 0.00 0.03 0.03 95 1003.9
20260506030819 34 305 0.0 0.0 0.00 0.03 0.03 95 1003.8
20260506030317 34 305 0.0 0.0 0.00 0.03 0.03 95 1003.7
20260506025814 34 299 0.0 0.0 0.00 0.03 0.03 95 1003.7
20260506025310 34 290 0.0 0.0 0.00 0.03 0.03 95 1003.6
20260506024807 34 19 0.0 0.0 0.00 0.03 0.03 95 1003.6
20260506024304 35 71 1.7 2.6 0.00 0.03 0.03 95 1003.4
20260506023800 34 64 1.7 1.7 0.00 0.03 0.03 95 1003.6
20260506023257 34 65 1.7 1.7 0.00 0.03 0.03 95 1003.6
20260506022753 34 54 0.0 0.0 0.00 0.03 0.03 95 1003.5
20260506022252 34 61 0.0 0.0 0.00 0.03 0.03 95 1003.5
20260506021749 35 48 0.9 1.7 0.00 0.03 0.03 95 1003.3
20260506021246 35 45 0.9 0.9 0.00 0.03 0.03 95 1003.4
20260506020743 34 28 0.0 0.0 0.00 0.03 0.03 95 1003.4
20260506020241 34 341 0.0 0.9 0.00 0.03 0.03 95 1003.3
20260506015738 34 354 0.9 1.7 0.00 0.03 0.03 95 1003.3
20260506015235 35 22 0.9 1.7 0.00 0.03 0.03 95 1003.2
20260506014732 35 71 1.7 1.7 0.00 0.03 0.03 94 1003.2
20260506014228 35 55 0.0 0.0 0.00 0.03 0.03 94 1003.4
20260506013726 35 25 0.0 0.0 0.00 0.03 0.03 94 1003.4
20260506013223 35 24 0.0 0.0 0.00 0.03 0.03 94 1003.1
20260506012719 35 61 0.0 0.0 0.00 0.03 0.03 94 1003.2
20260506012216 35 39 0.0 0.0 0.00 0.03 0.03 94 1003.1
20260506011713 35 39 0.0 0.0 0.00 0.03 0.03 94 1003.1
20260506011209 35 39 0.0 0.9 0.00 0.03 0.03 94 1003.2
20260506010708 35 15 0.9 0.9 0.00 0.03 0.03 94 1003.0
20260506010205 35 19 0.9 1.7 0.00 0.03 0.03 94 1003.0
20260506005702 35 2 0.9 1.7 0.00 0.03 0.03 94 1003.1
20260506005159 35 315 0.0 0.0 0.00 0.03 0.03 93 1003.0
20260506004655 35 341 1.7 1.7 0.00 0.03 0.03 93 1002.8
20260506004152 35 355 0.0 0.0 0.00 0.03 0.03 93 1002.9
20260506003648 35 13 0.0 0.0 0.00 0.03 0.03 93 1002.9
20260506003145 35 340 0.0 0.0 0.00 0.03 0.03 93 1002.8
20260506002641 35 35 0.0 0.0 0.00 0.03 0.03 93 1003.1
20260506002137 35 26 0.0 0.0 0.00 0.03 0.03 93 1002.8
20260506001633 35 355 0.0 0.0 0.05 0.03 0.03 93 1002.9
20260506001131 35 44 0.9 1.7 0.00 0.02 0.02 93 1002.7
20260506000628 35 72 0.9 2.6 0.07 0.02 0.02 93 1002.8
20260506000125 35 43 0.9 1.7 0.07 0.02 0.02 93 1002.9
20260505235623 35 302 0.9 2.6 0.00 0.01 0.01 93 1002.8
20260505235120 35 343 0.9 1.7 0.00 0.01 0.01 93 1002.8
20260505234617 35 8 0.9 1.7 0.00 0.01 0.01 93 1002.6
20260505234113 35 340 0.9 1.7 0.00 0.01 0.01 93 1002.7
20260505233611 35 339 0.9 1.7 0.00 0.01 0.01 93 1002.7
20260505233108 36 335 1.7 1.7 0.05 0.01 0.01 93 1002.5
20260505232606 36 341 0.9 0.9 0.00 0.00 0.00 93 1002.7
20260505232103 35 16 0.0 1.7 0.00 0.00 0.00 93 1002.6
20260505231600 36 76 1.7 2.6 0.00 0.00 0.00 93 1002.5
20260505231059 36 79 0.0 0.0 0.00 0.00 0.00 92 1002.5
20260505230556 36 66 0.9 0.9 0.00 0.00 0.00 92 1002.5
20260505230052 36 87 0.9 1.7 0.00 0.00 0.00 92 1002.5
20260505225549 36 45 0.9 1.7 0.00 0.00 0.00 91 1002.5
20260505225045 36 27 0.0 0.0 0.00 0.00 0.00 91 1002.5
20260505224542 36 9 0.0 0.0 0.00 0.00 0.00 91 1002.4
20260505224039 36 35 0.0 0.0 0.00 0.00 0.00 90 1002.5
20260505223536 36 340 0.9 1.7 0.00 0.00 0.00 90 1002.3
20260505223032 36 309 1.7 1.7 0.00 0.00 0.00 90 1002.4
20260505222529 36 39 1.7 2.6 0.00 0.00 0.00 89 1002.4
20260505222025 37 25 1.7 1.7 0.00 0.00 0.00 89 1002.3
20260505221523 37 14 1.7 1.7 0.00 0.00 0.00 88 1002.1
20260505221019 37 354 1.7 1.7 0.00 0.00 0.00 88 1002.2
20260505220516 37 285 1.7 1.7 0.00 0.00 0.00 87 1002.3
20260505220014 38 316 0.0 0.0 0.00 0.00 0.00 87 1002.1
20260505215512 38 227 0.0 0.0 0.00 0.15 0.15 86 1002.1
20260505215009 38 260 0.9 2.6 0.00 0.15 0.15 86 1002.1
20260505214508 38 266 2.6 3.5 0.00 0.15 0.15 85 1002.1
20260505214004 38 230 1.7 1.7 0.00 0.15 0.15 85 1002.0
20260505213502 38 290 1.7 2.6 0.00 0.15 0.15 84 1002.0
20260505212958 38 251 1.7 1.7 0.00 0.15 0.15 84 1002.0
20260505212454 38 236 0.9 1.7 0.00 0.15 0.15 83 1002.0
20260505211951 38 326 0.0 2.6 0.00 0.15 0.15 81 1001.9
20260505211449 38 239 0.9 3.5 0.00 0.15 0.15 82 1002.0
20260505210945 38 338 0.9 3.5 0.00 0.15 0.15 80 1002.1
20260505210442 38 240 1.7 3.5 0.00 0.15 0.15 79 1001.9
20260505205939 38 131 3.5 5.2 0.00 0.15 0.15 78 1001.9
20260505205437 38 127 2.6 3.5 0.00 0.15 0.15 78 1001.9
20260505204933 38 142 0.9 2.6 0.00 0.15 0.15 78 1001.8
20260505204432 38 148 1.7 2.6 0.00 0.15 0.15 78 1001.5
20260505203929 38 134 2.6 5.2 0.00 0.15 0.15 79 1001.6
20260505203425 38 123 1.7 5.2 0.00 0.15 0.15 78 1001.6
20260505202921 38 80 2.6 3.5 0.00 0.15 0.15 79 1001.6
20260505202418 38 114 3.5 6.1 0.00 0.15 0.15 79 1001.5
20260505201914 39 94 1.7 5.2 0.00 0.15 0.15 79 1001.4